Volver al catálogo

STARLINK-37744

ActivoComunicacionesSSO
NORAD 69347·PAYLOAD·🇺🇸 United States

Lanzado Jun 3, 2026 desde Vandenberg Space Force Base

Loading…

Próximos Pases (próximas 24 horas)

TLE

ActualizadoSource: CelesTrak SupGP

Época: Sep 15, 2026, 04:27 UTC

1 69347C 26122U   26258.18590278 -.00066590  00000+0 -20675-2 0  2582
2 69347  97.2825 286.9182 0001006  95.1063  38.9173 15.33467324    11

Sigue STARLINK-37744 en tiempo real con AllMySat

Download on the App Store